OBJECT B, 61895

Orbit data source: Space-Track

You're viewing an Uncataloged Satellite

Recently launched and/or uncataloged satellites may have evolving metadata. Metadata may include but not limited to: Owner, Maufacturer, Bus, Motor, and Mission.

OBJECT B, 61895 is a satellite owned by CASC (CN) in SSO that was launched on Mon, 11 Nov 2024 UTC via a LIJIAN-1 launch vehicle from the Jiuquan Satellite Launch Center, China (JSC). Unknown objects in Earth's orbit typically refer to objects detected orbiting the Earth but have not yet been identified or cataloged. These objects could be anything from previously untracked satellites, spent rocket stages, debris from satellite collisions, or even natural meteoroids temporarily captured by Earth's gravity.

Loading next visibility...
Identifier
61895, 2024-205B
Orbit
SSO
Country
Flag of CNCN / PRC
Related business
None
Manufacturer
SECM?
Mission
Operational Defense Technology
Bus & Motor
Unknown
Mass
~100 kg wet, ~100 kg dry
Launch date (UTC)
2024-11-11 (10 months ago)
Launch vehicle
LIJIAN-1
Launch site
Jiuquan Satellite Launch Center, China (JSC)
Object type
Unknown
Shape & HBR
Box + 2 Pan, 2.5 m
Radar Cross Section
4.795 m², Medium (>0.1 m² and < 1m²)

Expand to show TLE details & history
Last TLE update: 10 hours ago

TLE from 10 hours ago
0 OBJECT B
1 61895U 24205B   25261.28683753  .00011237  00000-0  48354-3 0  9991
2 61895  97.4427 335.3451 0010374 273.4963  86.5087 15.22743167 47190
Epoch: 2025-09-18T06:53Z
TLE epoch observation values (Epoch: 2025-09-18T06:53:02.762Z)
Latitude
-0.00002°
Longitude
-125.36701°
Altitude
500.237 km
Speed
7.615 km/s
True Right ascension
22h 21m 22s
True Declination
0° 00' 00"
Sunlit
Object was in full shadow at epoch
Visualization orbit readout
Latitude
Unknown
Longitude
Unknown
Altitude
Unknown
Speed
Unknown
Apparent Right ascension
Unknown
Apparent Declination
Unknown
Sunlit
N/A
Visualization observer readout
Local Sidereal Time
09:47:58
Azimuth
Unknown
Elevation
Unknown
Doppler factor
Unknown
Orbital elements
Apogee altitude
501.664 km
Perigee altitude
487.405 km
Semi-major axis
6,872.671 km
Eccentricity
0.00104
Inclination
97.4427°
RAAN
335.3451°
Arg. of periapsis
273.4963°
True anomaly
86.62737°
Mean anomaly
86.5087°
Eccentric anomaly
86.56803°
Mean motion
3.80938 °/min
Orbital period
94.5 mins
BSTAR
0.00048354
Loading maneuver chart data...
Computing Atmospheric mass density...
Loading historical data...
Loading historical data...
Loading historical data...
Loading historical data...
Loading historical data...
Loading historical data...
Loading historical data...

Documentation

Showing up to 5 results
|